Year,Month,Day,Hour,Minute,Value (Times are PST for temperature in C)
2017,11,09,00,00,3.90
2017,11,09,00,01,3.90
2017,11,09,00,02,3.90
2017,11,09,00,03,3.90
2017,11,09,00,04,3.90
2017,11,09,00,05,3.90
2017,11,09,00,06,3.90
2017,11,09,00,07,3.90
2017,11,09,00,08,3.90
2017,11,09,00,09,3.90
2017,11,09,00,10,3.80
2017,11,09,00,11,3.80
2017,11,09,00,12,3.80
2017,11,09,00,13,3.90
2017,11,09,00,14,3.90
2017,11,09,00,15,3.90
2017,11,09,00,16,3.90
2017,11,09,00,17,3.90
2017,11,09,00,18,3.90
2017,11,09,00,19,4.00
2017,11,09,00,20,4.10
2017,11,09,00,21,4.10
2017,11,09,00,22,4.20
2017,11,09,00,23,4.20
2017,11,09,00,24,4.20
2017,11,09,00,25,4.20
2017,11,09,00,26,4.10
2017,11,09,00,27,4.00
2017,11,09,00,28,3.90
2017,11,09,00,29,3.80
2017,11,09,00,30,3.80
2017,11,09,00,31,3.80
2017,11,09,00,32,3.80
2017,11,09,00,33,3.70
2017,11,09,00,34,3.70
2017,11,09,00,35,3.70
2017,11,09,00,36,3.70
2017,11,09,00,37,3.60
2017,11,09,00,38,3.60
2017,11,09,00,39,3.60
2017,11,09,00,40,3.60
2017,11,09,00,41,3.60
2017,11,09,00,42,3.60
2017,11,09,00,43,3.60
2017,11,09,00,44,3.60
2017,11,09,00,45,3.60
2017,11,09,00,46,3.50
2017,11,09,00,47,3.50
2017,11,09,00,48,3.50
2017,11,09,00,49,3.50
2017,11,09,00,50,3.50
2017,11,09,00,51,3.60
2017,11,09,00,52,3.60
2017,11,09,00,53,3.60
2017,11,09,00,54,3.60
2017,11,09,00,55,3.60
2017,11,09,00,56,3.60
2017,11,09,00,57,3.60
2017,11,09,00,58,3.60
2017,11,09,00,59,3.60
2017,11,09,01,00,3.60
2017,11,09,01,01,3.60
2017,11,09,01,02,3.60
2017,11,09,01,03,3.60
2017,11,09,01,04,3.60
2017,11,09,01,05,3.60
2017,11,09,01,06,3.60
2017,11,09,01,07,3.60
2017,11,09,01,08,3.60
2017,11,09,01,09,3.60
2017,11,09,01,10,3.60
2017,11,09,01,11,3.60
2017,11,09,01,12,3.60
2017,11,09,01,13,3.60
2017,11,09,01,14,3.60
2017,11,09,01,15,3.70
2017,11,09,01,16,3.70
2017,11,09,01,17,3.80
2017,11,09,01,18,3.80
2017,11,09,01,19,3.80
2017,11,09,01,20,3.90
2017,11,09,01,21,3.90
2017,11,09,01,22,3.90
2017,11,09,01,23,3.90
2017,11,09,01,24,3.80
2017,11,09,01,25,3.80
2017,11,09,01,26,3.80
2017,11,09,01,27,3.80
2017,11,09,01,28,3.80
2017,11,09,01,29,3.80
2017,11,09,01,30,3.80
2017,11,09,01,31,3.90
2017,11,09,01,32,3.90
2017,11,09,01,33,3.90
2017,11,09,01,34,3.90
2017,11,09,01,35,3.90
2017,11,09,01,36,3.90
2017,11,09,01,37,4.00
2017,11,09,01,38,4.00
2017,11,09,01,39,4.00
2017,11,09,01,40,4.00
2017,11,09,01,41,4.00
2017,11,09,01,42,4.00
2017,11,09,01,43,4.10
2017,11,09,01,44,4.10
2017,11,09,01,45,4.10
2017,11,09,01,46,4.10
2017,11,09,01,47,4.10
2017,11,09,01,48,4.10
2017,11,09,01,49,4.20
2017,11,09,01,50,4.20
2017,11,09,01,51,4.20
2017,11,09,01,52,4.20
2017,11,09,01,53,4.20
2017,11,09,01,54,4.20
2017,11,09,01,55,4.20
2017,11,09,01,56,4.20
2017,11,09,01,57,4.20
2017,11,09,01,58,4.20
2017,11,09,01,59,4.20
2017,11,09,02,00,4.10
2017,11,09,02,01,4.10
2017,11,09,02,02,4.10
2017,11,09,02,03,4.10
2017,11,09,02,04,4.10
2017,11,09,02,05,4.10
2017,11,09,02,06,4.10
2017,11,09,02,07,4.10
2017,11,09,02,08,4.10
2017,11,09,02,09,4.10
2017,11,09,02,10,4.10
2017,11,09,02,11,4.00
2017,11,09,02,12,4.00
2017,11,09,02,13,3.90
2017,11,09,02,14,3.80
2017,11,09,02,15,3.80
2017,11,09,02,16,3.80
2017,11,09,02,17,3.80
2017,11,09,02,18,3.80
2017,11,09,02,19,3.80
2017,11,09,02,20,3.80
2017,11,09,02,21,3.80
2017,11,09,02,22,3.80
2017,11,09,02,23,3.80
2017,11,09,02,24,3.80
2017,11,09,02,25,3.80
2017,11,09,02,26,3.80
2017,11,09,02,27,3.80
2017,11,09,02,28,3.80
2017,11,09,02,29,3.80
2017,11,09,02,30,3.80
2017,11,09,02,31,3.80
2017,11,09,02,32,3.80
2017,11,09,02,33,3.70
2017,11,09,02,34,3.70
2017,11,09,02,35,3.70
2017,11,09,02,36,3.70
2017,11,09,02,37,3.70
2017,11,09,02,38,3.70
2017,11,09,02,39,3.70
2017,11,09,02,40,3.70
2017,11,09,02,41,3.70
2017,11,09,02,42,3.70
2017,11,09,02,43,3.70
2017,11,09,02,44,3.60
2017,11,09,02,45,3.60
2017,11,09,02,46,3.60
2017,11,09,02,47,3.60
2017,11,09,02,48,3.60
2017,11,09,02,49,3.60
2017,11,09,02,50,3.60
2017,11,09,02,51,3.60
2017,11,09,02,52,3.60
2017,11,09,02,53,3.60
2017,11,09,02,54,3.60
2017,11,09,02,55,3.60
2017,11,09,02,56,3.60
2017,11,09,02,57,3.60
2017,11,09,02,58,3.60
2017,11,09,02,59,3.60
2017,11,09,03,00,3.60
2017,11,09,03,01,3.60
2017,11,09,03,02,3.60
2017,11,09,03,03,3.60
2017,11,09,03,04,3.60
2017,11,09,03,05,3.60
2017,11,09,03,06,3.60
2017,11,09,03,07,3.60
2017,11,09,03,08,3.60
2017,11,09,03,09,3.70
2017,11,09,03,10,3.70
2017,11,09,03,11,3.70
2017,11,09,03,12,3.70
2017,11,09,03,13,3.70
2017,11,09,03,14,3.70
2017,11,09,03,15,3.70
2017,11,09,03,16,3.70
2017,11,09,03,17,3.70
2017,11,09,03,18,3.70
2017,11,09,03,19,3.70
2017,11,09,03,20,3.70
2017,11,09,03,21,3.70
2017,11,09,03,22,3.80
2017,11,09,03,23,3.80
2017,11,09,03,24,3.80
2017,11,09,03,25,3.80
2017,11,09,03,26,3.80
2017,11,09,03,27,3.80
2017,11,09,03,28,3.80
2017,11,09,03,29,3.90
2017,11,09,03,30,3.90
2017,11,09,03,31,3.90
2017,11,09,03,32,3.80
2017,11,09,03,33,3.80
2017,11,09,03,34,3.80
2017,11,09,03,35,3.80
2017,11,09,03,36,3.80
2017,11,09,03,37,3.80
2017,11,09,03,38,3.80
2017,11,09,03,39,3.80
2017,11,09,03,40,3.80
2017,11,09,03,41,3.80
2017,11,09,03,42,3.70
2017,11,09,03,43,3.80
2017,11,09,03,44,3.70
2017,11,09,03,45,3.80
2017,11,09,03,46,3.80
2017,11,09,03,47,3.80
2017,11,09,03,48,3.80
2017,11,09,03,49,3.80
2017,11,09,03,50,3.80
2017,11,09,03,51,3.80
2017,11,09,03,52,3.80
2017,11,09,03,53,3.80
2017,11,09,03,54,3.80
2017,11,09,03,55,3.80
2017,11,09,03,56,3.80
2017,11,09,03,57,3.80
2017,11,09,03,58,3.80
2017,11,09,03,59,3.80
2017,11,09,04,00,3.80
2017,11,09,04,01,3.80
2017,11,09,04,02,3.80
2017,11,09,04,03,3.90
2017,11,09,04,04,3.90
2017,11,09,04,05,3.90
2017,11,09,04,06,4.00
2017,11,09,04,07,4.00
2017,11,09,04,08,3.90
2017,11,09,04,09,3.90
2017,11,09,04,10,3.90
2017,11,09,04,11,3.80
2017,11,09,04,12,3.80
2017,11,09,04,13,3.80
2017,11,09,04,14,3.80
2017,11,09,04,15,3.90
2017,11,09,04,16,3.90
2017,11,09,04,17,4.00
2017,11,09,04,18,4.00
2017,11,09,04,19,4.00
2017,11,09,04,20,4.00
2017,11,09,04,21,4.00
2017,11,09,04,22,4.10
2017,11,09,04,23,4.10
2017,11,09,04,24,4.00
2017,11,09,04,25,3.90
2017,11,09,04,26,3.90
2017,11,09,04,27,3.90
2017,11,09,04,28,3.80
2017,11,09,04,29,3.80
2017,11,09,04,30,3.80
2017,11,09,04,31,3.80
2017,11,09,04,32,3.80
2017,11,09,04,33,3.80
2017,11,09,04,34,3.80
2017,11,09,04,35,3.80
2017,11,09,04,36,3.90
2017,11,09,04,37,3.90
2017,11,09,04,38,3.90
2017,11,09,04,39,3.90
2017,11,09,04,40,3.90
2017,11,09,04,41,4.00
2017,11,09,04,42,4.00
2017,11,09,04,43,4.10
2017,11,09,04,44,4.10
2017,11,09,04,45,4.20
2017,11,09,04,46,4.20
2017,11,09,04,47,4.20
2017,11,09,04,48,4.20
2017,11,09,04,49,4.20
2017,11,09,04,50,4.30
2017,11,09,04,51,4.30
2017,11,09,04,52,4.30
2017,11,09,04,53,4.30
2017,11,09,04,54,4.30
2017,11,09,04,55,4.30
2017,11,09,04,56,4.20
2017,11,09,04,57,4.20
2017,11,09,04,58,4.20
2017,11,09,04,59,4.10
2017,11,09,05,00,4.10
2017,11,09,05,01,4.10
2017,11,09,05,02,4.00
2017,11,09,05,03,4.00
2017,11,09,05,04,4.00
2017,11,09,05,05,4.00
2017,11,09,05,06,4.10
2017,11,09,05,07,4.10
2017,11,09,05,08,4.10
2017,11,09,05,09,4.20
2017,11,09,05,10,4.20
2017,11,09,05,11,4.20
2017,11,09,05,12,4.20
2017,11,09,05,13,4.20
2017,11,09,05,14,4.20
2017,11,09,05,15,4.20
2017,11,09,05,16,4.20
2017,11,09,05,17,4.20
2017,11,09,05,18,4.20
2017,11,09,05,19,4.20
2017,11,09,05,20,4.20
2017,11,09,05,21,4.20
2017,11,09,05,22,4.20
2017,11,09,05,23,4.20
2017,11,09,05,24,4.20
2017,11,09,05,25,4.20
2017,11,09,05,26,4.30
2017,11,09,05,27,4.30
2017,11,09,05,28,4.30
2017,11,09,05,29,4.30
2017,11,09,05,30,4.30
2017,11,09,05,31,4.30
2017,11,09,05,32,4.30
2017,11,09,05,33,4.30
2017,11,09,05,34,4.30
2017,11,09,05,35,4.30
2017,11,09,05,36,4.30
2017,11,09,05,37,4.30
2017,11,09,05,38,4.30
2017,11,09,05,39,4.30
2017,11,09,05,40,4.30
2017,11,09,05,41,4.30
2017,11,09,05,42,4.30
2017,11,09,05,43,4.30
2017,11,09,05,44,4.30
2017,11,09,05,45,4.30
2017,11,09,05,46,4.30
2017,11,09,05,47,4.30
2017,11,09,05,48,4.30
2017,11,09,05,49,4.30
2017,11,09,05,50,4.30
2017,11,09,05,51,4.30
2017,11,09,05,52,4.30
2017,11,09,05,53,4.30
2017,11,09,05,54,4.30
2017,11,09,05,55,4.30
2017,11,09,05,56,4.30
2017,11,09,05,57,4.30
2017,11,09,05,58,4.30
2017,11,09,05,59,4.30
2017,11,09,06,00,4.30
2017,11,09,06,01,4.30
2017,11,09,06,02,4.40
2017,11,09,06,03,4.40
2017,11,09,06,04,4.40
2017,11,09,06,05,4.40
2017,11,09,06,06,4.40
2017,11,09,06,07,4.40
2017,11,09,06,08,4.40
2017,11,09,06,09,4.40
2017,11,09,06,10,4.40
2017,11,09,06,11,4.40
2017,11,09,06,12,4.40
2017,11,09,06,13,4.40
2017,11,09,06,14,4.40
2017,11,09,06,15,4.40
2017,11,09,06,16,4.40
2017,11,09,06,17,4.30
2017,11,09,06,18,4.30
2017,11,09,06,19,4.30
2017,11,09,06,20,4.30
2017,11,09,06,21,4.30
2017,11,09,06,22,4.30
2017,11,09,06,23,4.30
2017,11,09,06,24,4.30
2017,11,09,06,25,4.30
2017,11,09,06,26,4.30
2017,11,09,06,27,4.20
2017,11,09,06,28,4.20
2017,11,09,06,29,4.20
2017,11,09,06,30,4.20
2017,11,09,06,31,4.10
2017,11,09,06,32,4.10
2017,11,09,06,33,4.10
2017,11,09,06,34,4.10
2017,11,09,06,35,4.10
2017,11,09,06,36,4.00
2017,11,09,06,37,4.00
2017,11,09,06,38,4.00
2017,11,09,06,39,4.00
2017,11,09,06,40,4.00
2017,11,09,06,41,3.90
2017,11,09,06,42,3.90
2017,11,09,06,43,3.90
2017,11,09,06,44,3.90
2017,11,09,06,45,3.90
2017,11,09,06,46,4.00
2017,11,09,06,47,4.00
2017,11,09,06,48,4.10
2017,11,09,06,49,4.10
2017,11,09,06,50,4.10
2017,11,09,06,51,4.20
2017,11,09,06,52,4.20
2017,11,09,06,53,4.30
2017,11,09,06,54,4.30
2017,11,09,06,55,4.30
2017,11,09,06,56,4.30
2017,11,09,06,57,4.30
2017,11,09,06,58,4.30
2017,11,09,06,59,4.30
2017,11,09,07,00,4.30
2017,11,09,07,01,4.30
2017,11,09,07,02,4.30
2017,11,09,07,03,4.30
2017,11,09,07,04,4.30
2017,11,09,07,05,4.30
2017,11,09,07,06,4.40
2017,11,09,07,07,4.40
2017,11,09,07,08,4.40
2017,11,09,07,09,4.40
2017,11,09,07,10,4.40
2017,11,09,07,11,4.40
2017,11,09,07,12,4.50
2017,11,09,07,13,4.40
2017,11,09,07,14,4.40
2017,11,09,07,15,4.40
2017,11,09,07,16,4.40
2017,11,09,07,17,4.40
2017,11,09,07,18,4.40
2017,11,09,07,19,4.40
2017,11,09,07,20,4.30
2017,11,09,07,21,4.30
2017,11,09,07,22,4.30
2017,11,09,07,23,4.30
2017,11,09,07,24,4.30
2017,11,09,07,25,4.30
2017,11,09,07,26,4.30
2017,11,09,07,27,4.40
2017,11,09,07,28,4.40
2017,11,09,07,29,4.30
2017,11,09,07,30,4.30
2017,11,09,07,31,4.30
2017,11,09,07,32,4.30
2017,11,09,07,33,4.30
2017,11,09,07,34,4.30
2017,11,09,07,35,4.30
2017,11,09,07,36,4.30
2017,11,09,07,37,4.30
2017,11,09,07,38,4.30
2017,11,09,07,39,4.30
2017,11,09,07,40,4.40
2017,11,09,07,41,4.40
2017,11,09,07,42,4.40
2017,11,09,07,43,4.40
2017,11,09,07,44,4.50
2017,11,09,07,45,4.50
2017,11,09,07,46,4.50
2017,11,09,07,47,4.60
2017,11,09,07,48,4.60
2017,11,09,07,49,4.60
2017,11,09,07,50,4.70
2017,11,09,07,51,4.70
2017,11,09,07,52,4.70
2017,11,09,07,53,4.70
2017,11,09,07,54,4.70
2017,11,09,07,55,4.60
2017,11,09,07,56,4.60
2017,11,09,07,57,4.60
2017,11,09,07,58,4.50
2017,11,09,07,59,4.50
2017,11,09,08,00,4.50
2017,11,09,08,01,4.40
2017,11,09,08,02,4.40
2017,11,09,08,03,4.40
2017,11,09,08,04,4.30
2017,11,09,08,05,4.30
2017,11,09,08,06,4.30
2017,11,09,08,07,4.30
2017,11,09,08,08,4.30
2017,11,09,08,09,4.30
2017,11,09,08,10,4.40
2017,11,09,08,11,4.40
2017,11,09,08,12,4.40
2017,11,09,08,13,4.40
2017,11,09,08,14,4.40
2017,11,09,08,15,4.50
2017,11,09,08,16,4.50
2017,11,09,08,17,4.40
2017,11,09,08,18,4.40
2017,11,09,08,19,4.40
2017,11,09,08,20,4.40
2017,11,09,08,21,4.40
2017,11,09,08,22,4.40
2017,11,09,08,23,4.40
2017,11,09,08,24,4.30
2017,11,09,08,25,4.30
2017,11,09,08,26,4.30
2017,11,09,08,27,4.30
2017,11,09,08,28,4.20
2017,11,09,08,29,4.20
2017,11,09,08,30,4.20
2017,11,09,08,31,4.20
2017,11,09,08,32,4.10
2017,11,09,08,33,4.10
2017,11,09,08,34,4.10
2017,11,09,08,35,4.00
2017,11,09,08,36,4.00
2017,11,09,08,37,4.00
2017,11,09,08,38,4.00
2017,11,09,08,39,4.00
2017,11,09,08,40,4.00
2017,11,09,08,41,4.00
2017,11,09,08,42,4.00
2017,11,09,08,43,4.00
2017,11,09,08,44,4.10
2017,11,09,08,45,4.10
2017,11,09,08,46,4.10
2017,11,09,08,47,4.10
2017,11,09,08,48,4.10
2017,11,09,08,49,4.20
2017,11,09,08,50,4.20
2017,11,09,08,51,4.20
2017,11,09,08,52,4.30
2017,11,09,08,53,4.30
2017,11,09,08,54,4.30
2017,11,09,08,55,4.40
2017,11,09,08,56,4.40
2017,11,09,08,57,4.40
2017,11,09,08,58,4.40
2017,11,09,08,59,4.40
2017,11,09,09,00,4.40
2017,11,09,09,01,4.40
2017,11,09,09,02,4.40
2017,11,09,09,03,4.40
2017,11,09,09,04,4.40
2017,11,09,09,05,4.40
2017,11,09,09,06,4.40
2017,11,09,09,07,4.40
2017,11,09,09,08,4.40
2017,11,09,09,09,4.40
2017,11,09,09,10,4.40
2017,11,09,09,11,4.40
2017,11,09,09,12,4.40
2017,11,09,09,13,4.40
2017,11,09,09,14,4.30
2017,11,09,09,15,4.30
2017,11,09,09,16,4.30
2017,11,09,09,17,4.30
2017,11,09,09,18,4.30
2017,11,09,09,19,4.30
2017,11,09,09,20,4.30
2017,11,09,09,21,4.30
2017,11,09,09,22,4.30
2017,11,09,09,23,4.30
2017,11,09,09,24,4.30
2017,11,09,09,25,4.30
2017,11,09,09,26,4.30
2017,11,09,09,27,4.30
2017,11,09,09,28,4.40
2017,11,09,09,29,4.40
2017,11,09,09,30,4.40
2017,11,09,09,31,4.40
2017,11,09,09,32,4.40
2017,11,09,09,33,4.40
2017,11,09,09,34,4.40
2017,11,09,09,35,4.40
2017,11,09,09,36,4.40
2017,11,09,09,37,4.40
2017,11,09,09,38,4.50
2017,11,09,09,39,4.50
2017,11,09,09,40,4.50
2017,11,09,09,41,4.50
2017,11,09,09,42,4.60
2017,11,09,09,43,4.60
2017,11,09,09,44,4.60
2017,11,09,09,45,4.60
2017,11,09,09,46,4.60
2017,11,09,09,47,4.70
2017,11,09,09,48,4.70
2017,11,09,09,49,4.70
2017,11,09,09,50,4.70
2017,11,09,09,51,4.70
2017,11,09,09,52,4.70
2017,11,09,09,53,4.80
2017,11,09,09,54,4.80
2017,11,09,09,55,4.80
2017,11,09,09,56,4.80
2017,11,09,09,57,4.80
2017,11,09,09,58,4.80
2017,11,09,09,59,4.80
2017,11,09,10,00,4.90
2017,11,09,10,01,4.90
2017,11,09,10,02,4.90
2017,11,09,10,03,4.90
2017,11,09,10,04,4.90
2017,11,09,10,05,4.90
2017,11,09,10,06,5.00
2017,11,09,10,07,5.00
2017,11,09,10,08,5.00
2017,11,09,10,09,5.00
2017,11,09,10,10,5.10
2017,11,09,10,11,5.10
2017,11,09,10,12,5.10
2017,11,09,10,13,5.20
2017,11,09,10,14,5.20
2017,11,09,10,15,5.20
2017,11,09,10,16,5.20
2017,11,09,10,17,5.30
2017,11,09,10,18,5.30
2017,11,09,10,19,5.30
2017,11,09,10,20,5.40
2017,11,09,10,21,5.40
2017,11,09,10,22,5.40
2017,11,09,10,23,5.50
2017,11,09,10,24,5.50
2017,11,09,10,25,5.50
2017,11,09,10,26,5.50
2017,11,09,10,27,5.50
2017,11,09,10,28,5.50
2017,11,09,10,29,5.50
2017,11,09,10,30,5.50
2017,11,09,10,31,5.50
2017,11,09,10,32,5.40
2017,11,09,10,33,5.40
2017,11,09,10,34,5.40
2017,11,09,10,35,5.40
2017,11,09,10,36,5.40
2017,11,09,10,37,5.40
2017,11,09,10,38,5.40
2017,11,09,10,39,5.40
2017,11,09,10,40,5.40
2017,11,09,10,41,5.40
2017,11,09,10,42,5.40
2017,11,09,10,43,5.50
2017,11,09,10,44,5.50
2017,11,09,10,45,5.50
2017,11,09,10,46,5.50
2017,11,09,10,47,5.50
2017,11,09,10,48,5.50
2017,11,09,10,49,5.60
2017,11,09,10,50,5.60
2017,11,09,10,51,5.60
2017,11,09,10,52,5.60
2017,11,09,10,53,5.60
2017,11,09,10,54,5.60
2017,11,09,10,55,5.60
2017,11,09,10,56,5.60
2017,11,09,10,57,5.70
2017,11,09,10,58,5.70
2017,11,09,10,59,5.70
2017,11,09,11,00,5.70
2017,11,09,11,01,5.70
2017,11,09,11,02,5.80
2017,11,09,11,03,5.80
2017,11,09,11,04,5.80
2017,11,09,11,05,5.80
2017,11,09,11,06,5.80
2017,11,09,11,07,5.90
2017,11,09,11,08,5.90
2017,11,09,11,09,5.90
2017,11,09,11,10,6.00
2017,11,09,11,11,6.00
2017,11,09,11,12,6.00
2017,11,09,11,13,6.10
2017,11,09,11,14,6.10
2017,11,09,11,15,6.10
2017,11,09,11,16,6.10
2017,11,09,11,17,6.10
2017,11,09,11,18,6.10
2017,11,09,11,19,6.10
2017,11,09,11,20,6.10
2017,11,09,11,21,6.10
2017,11,09,11,22,6.10
2017,11,09,11,23,6.10
2017,11,09,11,24,6.10
2017,11,09,11,25,6.10
2017,11,09,11,26,6.10
2017,11,09,11,27,6.00
2017,11,09,11,28,6.00
2017,11,09,11,29,6.00
2017,11,09,11,30,6.00
2017,11,09,11,31,6.00
2017,11,09,11,32,6.00
2017,11,09,11,33,6.00
2017,11,09,11,34,6.00
2017,11,09,11,35,6.00
2017,11,09,11,36,6.00
2017,11,09,11,37,6.00
2017,11,09,11,38,6.00
2017,11,09,11,39,6.00
2017,11,09,11,40,6.10
2017,11,09,11,41,6.10
2017,11,09,11,42,6.10
2017,11,09,11,43,6.10
2017,11,09,11,44,6.10
2017,11,09,11,45,6.10
2017,11,09,11,46,6.10
2017,11,09,11,47,6.10
2017,11,09,11,48,6.10
2017,11,09,11,49,6.10
2017,11,09,11,50,6.10
2017,11,09,11,51,6.10
2017,11,09,11,52,6.10
2017,11,09,11,53,6.10
2017,11,09,11,54,6.10
2017,11,09,11,55,6.10
2017,11,09,11,56,6.10
2017,11,09,11,57,6.10
2017,11,09,11,58,6.10
2017,11,09,11,59,6.10
2017,11,09,12,00,6.10
2017,11,09,12,01,6.10
2017,11,09,12,02,6.10
2017,11,09,12,03,6.10
2017,11,09,12,04,6.10
2017,11,09,12,05,6.10
2017,11,09,12,06,6.10
2017,11,09,12,07,6.10
2017,11,09,12,08,6.10
2017,11,09,12,09,6.10
2017,11,09,12,10,6.10
2017,11,09,12,11,6.20
2017,11,09,12,12,6.20
2017,11,09,12,13,6.20
2017,11,09,12,14,6.20
2017,11,09,12,15,6.20
2017,11,09,12,16,6.20
2017,11,09,12,17,6.20
2017,11,09,12,18,6.20
2017,11,09,12,19,6.20
2017,11,09,12,20,6.20
2017,11,09,12,21,6.20
2017,11,09,12,22,6.20
2017,11,09,12,23,6.20
2017,11,09,12,24,6.20
2017,11,09,12,25,6.20
2017,11,09,12,26,6.20
2017,11,09,12,27,6.20
2017,11,09,12,28,6.20
2017,11,09,12,29,6.20
2017,11,09,12,30,6.20
2017,11,09,12,31,6.20
2017,11,09,12,32,6.20
2017,11,09,12,33,6.20
2017,11,09,12,34,6.20
2017,11,09,12,35,6.30
2017,11,09,12,36,6.30
2017,11,09,12,37,6.30
2017,11,09,12,38,6.30
2017,11,09,12,39,6.30
2017,11,09,12,40,6.40
2017,11,09,12,41,6.40
2017,11,09,12,42,6.40
2017,11,09,12,43,6.40
2017,11,09,12,44,6.40
2017,11,09,12,45,6.40
2017,11,09,12,46,6.50
2017,11,09,12,47,6.50
2017,11,09,12,48,6.50
2017,11,09,12,49,6.50
2017,11,09,12,50,6.50
2017,11,09,12,51,6.50
2017,11,09,12,52,6.50
2017,11,09,12,53,6.50
2017,11,09,12,54,6.50
2017,11,09,12,55,6.50
2017,11,09,12,56,6.50
2017,11,09,12,57,6.50
2017,11,09,12,58,6.60
2017,11,09,12,59,6.60
2017,11,09,13,00,6.70
2017,11,09,13,01,6.70
2017,11,09,13,02,6.70
2017,11,09,13,03,6.70
2017,11,09,13,04,6.70
2017,11,09,13,05,6.70
2017,11,09,13,06,6.70
2017,11,09,13,07,6.80
2017,11,09,13,08,6.80
2017,11,09,13,09,6.80
2017,11,09,13,10,6.80
2017,11,09,13,11,6.80
2017,11,09,13,12,6.80
2017,11,09,13,13,6.80
2017,11,09,13,14,6.70
2017,11,09,13,15,6.70
2017,11,09,13,16,6.70
2017,11,09,13,17,6.70
2017,11,09,13,18,6.70
2017,11,09,13,19,6.70
2017,11,09,13,20,6.70
2017,11,09,13,21,6.70
2017,11,09,13,22,6.80
2017,11,09,13,23,6.80
2017,11,09,13,24,6.80
2017,11,09,13,25,6.80
2017,11,09,13,26,6.80
2017,11,09,13,27,6.80
2017,11,09,13,28,6.80
2017,11,09,13,29,6.80
2017,11,09,13,30,6.80
2017,11,09,13,31,6.80
2017,11,09,13,32,6.80
2017,11,09,13,33,6.80
2017,11,09,13,34,6.80
2017,11,09,13,35,6.80
2017,11,09,13,36,6.80
2017,11,09,13,37,6.80
2017,11,09,13,38,6.70
2017,11,09,13,39,6.70
2017,11,09,13,40,6.70
2017,11,09,13,41,6.70
2017,11,09,13,42,6.70
2017,11,09,13,43,6.70
2017,11,09,13,44,6.70
2017,11,09,13,45,6.70
2017,11,09,13,46,6.70
2017,11,09,13,47,6.70
2017,11,09,13,48,6.70
2017,11,09,13,49,6.70
2017,11,09,13,50,6.70
2017,11,09,13,51,6.70
2017,11,09,13,52,6.70
2017,11,09,13,53,6.70
2017,11,09,13,54,6.70
2017,11,09,13,55,6.70
2017,11,09,13,56,6.70
2017,11,09,13,57,6.60
2017,11,09,13,58,6.60
2017,11,09,13,59,6.60
2017,11,09,14,00,6.60
2017,11,09,14,01,6.60
2017,11,09,14,02,6.60
2017,11,09,14,03,6.60
2017,11,09,14,04,6.60
2017,11,09,14,05,6.60
2017,11,09,14,06,6.60
2017,11,09,14,07,6.60
2017,11,09,14,08,6.60
2017,11,09,14,09,6.60
2017,11,09,14,10,6.60
2017,11,09,14,11,6.60
2017,11,09,14,12,6.60
2017,11,09,14,13,6.60
2017,11,09,14,14,6.60
2017,11,09,14,15,6.60
2017,11,09,14,16,6.60
2017,11,09,14,17,6.60
2017,11,09,14,18,6.60
2017,11,09,14,19,6.60
2017,11,09,14,20,6.60
2017,11,09,14,21,6.60
2017,11,09,14,22,6.60
2017,11,09,14,23,6.60
2017,11,09,14,24,6.60
2017,11,09,14,25,6.60
2017,11,09,14,26,6.60
2017,11,09,14,27,6.60
2017,11,09,14,28,6.60
2017,11,09,14,29,6.60
2017,11,09,14,30,6.60
2017,11,09,14,31,6.60
2017,11,09,14,32,6.60
2017,11,09,14,33,6.50
2017,11,09,14,34,6.50
2017,11,09,14,35,6.50
2017,11,09,14,36,6.50
2017,11,09,14,37,6.60
2017,11,09,14,38,6.50
2017,11,09,14,39,6.50
2017,11,09,14,40,6.50
2017,11,09,14,41,6.50
2017,11,09,14,42,6.50
2017,11,09,14,43,6.50
2017,11,09,14,44,6.50
2017,11,09,14,45,6.50
2017,11,09,14,46,6.50
2017,11,09,14,47,6.50
2017,11,09,14,48,6.50
2017,11,09,14,49,6.50
2017,11,09,14,50,6.50
2017,11,09,14,51,6.50
2017,11,09,14,52,6.50
2017,11,09,14,53,6.50
2017,11,09,14,54,6.50
2017,11,09,14,55,6.50
2017,11,09,14,56,6.50
2017,11,09,14,57,6.50
2017,11,09,14,58,6.50
2017,11,09,14,59,6.50
2017,11,09,15,00,6.50
2017,11,09,15,01,6.50
2017,11,09,15,02,6.40
2017,11,09,15,03,6.40
2017,11,09,15,04,6.40
2017,11,09,15,05,6.40
2017,11,09,15,06,6.40
2017,11,09,15,07,6.40
2017,11,09,15,08,6.40
2017,11,09,15,09,6.40
2017,11,09,15,10,6.40
2017,11,09,15,11,6.40
2017,11,09,15,12,6.40
2017,11,09,15,13,6.40
2017,11,09,15,14,6.40
2017,11,09,15,15,6.40
2017,11,09,15,16,6.40
2017,11,09,15,17,6.40
2017,11,09,15,18,6.40
2017,11,09,15,19,6.40
2017,11,09,15,20,6.40
2017,11,09,15,21,6.30
2017,11,09,15,22,6.30
2017,11,09,15,23,6.30
2017,11,09,15,24,6.30
2017,11,09,15,25,6.30
2017,11,09,15,26,6.30
2017,11,09,15,27,6.30
2017,11,09,15,28,6.30
2017,11,09,15,29,6.30
2017,11,09,15,30,6.20
2017,11,09,15,31,6.20
2017,11,09,15,32,6.20
2017,11,09,15,33,6.20
2017,11,09,15,34,6.20
2017,11,09,15,35,6.20
2017,11,09,15,36,6.20
2017,11,09,15,37,6.20
2017,11,09,15,38,6.20
2017,11,09,15,39,6.20
2017,11,09,15,40,6.20
2017,11,09,15,41,6.20
2017,11,09,15,42,6.20
2017,11,09,15,43,6.10
2017,11,09,15,44,6.10
2017,11,09,15,45,6.10
2017,11,09,15,46,6.10
2017,11,09,15,47,6.10
2017,11,09,15,48,6.10
2017,11,09,15,49,6.10
2017,11,09,15,50,6.10
2017,11,09,15,51,6.10
2017,11,09,15,52,6.10
2017,11,09,15,53,6.10
2017,11,09,15,54,6.10
2017,11,09,15,55,6.10
2017,11,09,15,56,6.10
2017,11,09,15,57,6.10
2017,11,09,15,58,6.10
2017,11,09,15,59,6.10
2017,11,09,16,00,6.10
2017,11,09,16,01,6.10
2017,11,09,16,02,6.10
2017,11,09,16,03,6.10
2017,11,09,16,04,6.10
2017,11,09,16,05,6.10
2017,11,09,16,06,6.10
2017,11,09,16,07,6.10
2017,11,09,16,08,6.00
2017,11,09,16,09,6.00
2017,11,09,16,10,6.00
2017,11,09,16,11,6.00
2017,11,09,16,12,6.00
2017,11,09,16,13,6.00
2017,11,09,16,14,6.00
2017,11,09,16,15,6.00
2017,11,09,16,16,6.00
2017,11,09,16,17,5.90
2017,11,09,16,18,5.90
2017,11,09,16,19,5.90
2017,11,09,16,20,5.90
2017,11,09,16,21,6.00
2017,11,09,16,22,6.00
2017,11,09,16,23,5.90
2017,11,09,16,24,5.90
2017,11,09,16,25,5.90
2017,11,09,16,26,5.90
2017,11,09,16,27,5.90
2017,11,09,16,28,5.90
2017,11,09,16,29,5.90
2017,11,09,16,30,5.90
2017,11,09,16,31,5.90
2017,11,09,16,32,5.90
2017,11,09,16,33,5.90
2017,11,09,16,34,5.90
2017,11,09,16,35,5.90
2017,11,09,16,36,5.90
2017,11,09,16,37,5.90
2017,11,09,16,38,5.90
2017,11,09,16,39,5.90
2017,11,09,16,40,5.90
2017,11,09,16,41,5.90
2017,11,09,16,42,5.80
2017,11,09,16,43,5.80
2017,11,09,16,44,5.80
2017,11,09,16,45,5.80
2017,11,09,16,46,5.80
2017,11,09,16,47,5.80
2017,11,09,16,48,5.80
2017,11,09,16,49,5.80
2017,11,09,16,50,5.80
2017,11,09,16,51,5.80
2017,11,09,16,52,5.80
2017,11,09,16,53,5.80
2017,11,09,16,54,5.80
2017,11,09,16,55,5.70
2017,11,09,16,56,5.80
2017,11,09,16,57,5.70
2017,11,09,16,58,5.70
2017,11,09,16,59,5.70
2017,11,09,17,00,5.70
2017,11,09,17,01,5.70
2017,11,09,17,02,5.70
2017,11,09,17,03,5.70
2017,11,09,17,04,5.70
2017,11,09,17,05,5.70
2017,11,09,17,06,5.70
2017,11,09,17,07,5.70
2017,11,09,17,08,5.70
2017,11,09,17,09,5.70
2017,11,09,17,10,5.70
2017,11,09,17,11,5.70
2017,11,09,17,12,5.70
2017,11,09,17,13,5.70
2017,11,09,17,14,5.70
2017,11,09,17,15,5.70
2017,11,09,17,16,5.70
2017,11,09,17,17,5.70
2017,11,09,17,18,5.70
2017,11,09,17,19,5.60
2017,11,09,17,20,5.60
2017,11,09,17,21,5.60
2017,11,09,17,22,5.60
2017,11,09,17,23,5.60
2017,11,09,17,24,5.60
2017,11,09,17,25,5.60
2017,11,09,17,26,5.60
2017,11,09,17,27,5.60
2017,11,09,17,28,5.60
2017,11,09,17,29,5.60
2017,11,09,17,30,5.60
2017,11,09,17,31,5.50
2017,11,09,17,32,5.50
2017,11,09,17,33,5.50
2017,11,09,17,34,5.50
2017,11,09,17,35,5.50
2017,11,09,17,36,5.50
2017,11,09,17,37,5.50
2017,11,09,17,38,5.40
2017,11,09,17,39,5.40
2017,11,09,17,40,5.40
2017,11,09,17,41,5.40
2017,11,09,17,42,5.40
2017,11,09,17,43,5.40
2017,11,09,17,44,5.40
2017,11,09,17,45,5.40
2017,11,09,17,46,5.40
2017,11,09,17,47,5.40
2017,11,09,17,48,5.40
2017,11,09,17,49,5.40
2017,11,09,17,50,5.40
2017,11,09,17,51,5.40
2017,11,09,17,52,5.40
2017,11,09,17,53,5.40
2017,11,09,17,54,5.40
2017,11,09,17,55,5.40
2017,11,09,17,56,5.40
2017,11,09,17,57,5.40
2017,11,09,17,58,5.40
2017,11,09,17,59,5.40
2017,11,09,18,00,5.40
2017,11,09,18,01,5.40
2017,11,09,18,02,5.40
2017,11,09,18,03,5.40
2017,11,09,18,04,5.40
2017,11,09,18,05,5.40
2017,11,09,18,06,5.40